Flag for U.S.A. Weather past 2 weeks in Frankfort, Kentucky, U.S.A.

Now
44 °F

Clear.


Feels Like: 44 °F
Forecast: 44 / 64 °F
Wind: No wind

Location: Capital City Airport

Current Time: Oct 20, 2014 at 4:24:48 AM

Latest Report: Oct 20, 2014 at 3:53 AM


Visibility: 10 mi

Pressure: 30.05 "Hg

Humidity: 89%

Dew point: 41 °F

Location of FrankfortLocation

Historic Weather in Frankfort — Graph

°F

Frankfort temperature yesterday

Maximum temperature yesterday: 59 °F (at 3:53 PM)
Minimum temperature yesterday: 44 °F (at 10:53 PM)
Average temperature yesterday: 50 °F

Past Weeks' High & Low Weather Summary

 TemperatureHumidityPressure
High77 °F (Oct 13, 4:53 PM)100% (Oct 8, 12:53 AM)30.24 "Hg (Oct 8, 12:53 AM)
Low34 °F (Oct 5, 4:53 AM)31% (Oct 5, 2:53 PM)29.59 "Hg (Oct 14, 9:53 AM)
Average57 °F79%29.92 "Hg
* Reported Oct 5 2:53 AM — Oct 20 2:53 AM, Frankfort, Weather by CustomWeather, © 2014

Note: Actual official high and low records may vary slightly from our data, if they occured in-between our weather recording intervals... More about our weather records

Advertising

Frankfort weather history for previous 24 hours

 ConditionsComfort  
Time TempWeatherWind HumidityBarometerVisibility
2:53 AM
Oct 20
43 °FClear.No wind89%30.05 "Hg10 mi
1:53 AM42 °FClear.No wind92%30.06 "Hg10 mi
12:53 AM44 °FClear.No wind89%30.06 "Hg10 mi
10:53 PM
Oct 19
44 °FClear.No wind89%30.08 "Hg10 mi
9:53 PM45 °FClear.No wind86%30.09 "Hg10 mi
8:53 PM48 °FClear.No wind80%30.10 "Hg10 mi
7:53 PM47 °FSunny.3 mph83%30.12 "Hg10 mi
6:53 PM53 °FSunny.No wind64%30.12 "Hg10 mi
5:53 PM59 °FSunny.No wind46%30.12 "Hg10 mi
4:53 PM59 °FSunny.3 mph49%30.13 "Hg10 mi
3:53 PM59 °FSunny.No wind49%30.14 "Hg10 mi
2:53 PM58 °FSunny.No wind51%30.17 "Hg10 mi
1:53 PM56 °FSunny.5 mph53%30.20 "Hg10 mi
12:53 PM54 °FPassing clouds.3 mph57%30.22 "Hg10 mi
11:53 AM53 °FScattered clouds.3 mph59%30.24 "Hg10 mi
10:53 AM50 °FOvercast.No wind66%30.24 "Hg10 mi
9:53 AM49 °FOvercast.No wind77%30.24 "Hg10 mi
8:53 AM48 °FOvercast.No wind86%30.23 "Hg10 mi
7:53 AM47 °FOvercast.No wind90%30.21 "Hg10 mi
6:53 AM47 °FOvercast.No wind86%30.21 "Hg10 mi
5:53 AM47 °FOvercast.No wind86%30.19 "Hg10 mi
4:53 AM47 °FOvercast.3 mph86%30.18 "Hg10 mi
Weather by CustomWeather, © 2014

See weather overviewHow to use our weather pages